ECHOSTAR 25

Last updated on Sun Jun 21 2026 00:03:10 GMT+0000 (Coordinated Universal Time)

1 68126U 26045A 26171.13510616 -.00000061 00000+0 00000+0 0 9996 2 68126 0.0191 32.9364 0001942 58.2837 115.7547 1.00270586 1024
UTC large
Height (km)
Speed (km/s)
/
Latitude / Longitude
Inclination (degrees)
Orbital Period (minutes)
Azimuth
Elevation
Range (km)
Doppler Factor

Next 0 passes for location: London (51.5072 / 0.1276)

No passes found over London.
ECHOSTAR 25